Location: Wiler
(46.4041°N, 7.7840°E)
Time: 16:41:57
(UTC+00:00)

APEX - Pass Details

Date: 09 April 2020
Orbit: 331 x 1114 km, 69.9° (Epoch: 23 May)

Event Time Altitude Azimuth Distance (km) Brightness Sun altitude
Rises 18:28:29 0° 332° (NNW) 3,830 8.3 -4.1°
Reaches altitude 10° 18:31:21 10° 336° (NNW) 2,791 7.5 -4.6°
Maximum altitude 18:37:51 63° 57° (ENE) 975 4.4 -5.6°
Drops below altitude 10° 18:43:06 10° 139° (SE) 2,270 5.9 -6.5°
Enters shadow 18:44:28 - 141° (SE) 2,783 6.4 -6.7°
